Location: Peterborough
(44.3091°N, 78.3197°W)
Time: 16:45:43
(UTC-04:00)

Explorer 7 - Pass Details

Date: 23 March 2023
Orbit: 477 x 653 km, 50.3° (Epoch: 04 June)

Event Time Altitude Azimuth Distance (km) Brightness Sun altitude
Rises 18:04:39 0° 217° (SW) 2,900 11.3 14.2°
Reaches altitude 10° 18:07:07 10° 210° (SSW) 1,970 10.4 13.8°
Maximum altitude 18:11:19 39° 142° (SE) 894 7.8 13.0°
Drops below altitude 10° 18:15:20 10° 73° (ENE) 1,873 9.0 12.3°
Sets 18:17:37 0° 66° (ENE) 2,739 9.8 11.9°
